This demonstration page uses our WeatherBlox Daily Observations layout. Learn more.

Left ArrowRight Arrow

36.17497, -115.13722

Hourly Observations for March 7, 2015

Temp ( °F °C ) Dew Point ( °F °C ) Humidity (%) Winds ( mph kmh ) Pressure ( in mb ) Visibility ( mi km ) Precip ( " mm )
12:53 am 00:53 Clear 52 11.1 25 -3.9 35 35 W 3 6 30.21 1023 10 16 0.00 0.00
1:53 am 01:53 Clear 55 12.8 21 -6.1 26 26 N 6 9 30.19 1022 10 16 0.00 0.00
2:53 am 02:53 Clear 49 9.4 23 -5 36 36 WNW 5 7 30.18 1022 10 16 0.00 0.00
3:53 am 03:53 Clear 53 11.7 21 -6.1 28 28 N 3 6 30.18 1022 10 16 0.00 0.00
4:53 am 04:53 Clear 48 8.9 25 -3.9 41 41 W 5 7 30.19 1022 10 16 0.00 0.00
5:53 am 05:53 Clear 47 8.3 25 -3.9 42 42 SW 5 7 30.20 1023 10 16 0.00 0.00
6:53 am 06:53 Sunny 49 9.4 25 -3.9 39 39 NW 5 7 30.22 1023 10 16 0.00 0.00
7:53 am 07:53 Sunny 55 12.8 22 -5.6 28 28 NW 5 7 30.22 1024 10 16 0.00 0.00
8:53 am 08:53 Sunny 62 16.7 19 -7.2 19 19 N 9 15 30.21 1023 10 16 0.00 0.00
9:53 am 09:53 Sunny 66 18.9 17 -8.3 15 15 NNE 6 9 30.19 1023 10 16 0.00 0.00
10:53 am 10:53 Sunny 67 19.4 17 -8.3 15 15 SE 8 13 30.17 1022 10 16 0.00 0.00
11:53 am 11:53 Sunny 70 21.1 17 -8.3 13 13 Calm 30.14 1021 10 16 0.00 0.00
12:53 pm 12:53 Sunny 70 21.1 16 -8.9 12 12 S 5 7 30.11 1020 10 16 0.00 0.00
1:53 pm 13:53 Sunny 72 22.2 15 -9.4 11 11 SE 5 7 30.07 1018 10 16 0.00 0.00
2:53 pm 14:53 Sunny 74 23.3 14 -10 10 10 ENE 6 9 30.05 1018 10 16 0.00 0.00
3:53 pm 15:53 Sunny 74 23.3 14 -10 10 10 Calm 30.04 1017 10 16 0.00 0.00
4:53 pm 16:53 Sunny 73 22.8 15 -9.4 11 11 SE 3 6 30.03 1017 10 16 0.00 0.00
5:53 pm 17:53 Clear 69 20.6 19 -7.2 15 15 SE 3 6 30.04 1017 10 16 0.00 0.00
6:53 pm 18:53 Clear 69 20.6 18 -7.8 14 14 Calm 30.05 1018 10 16 0.00 0.00
7:53 pm 19:53 Clear 63 17.2 24 -4.4 23 23 WNW 6 9 30.05 1018 10 16 0.00 0.00
8:53 pm 20:53 Clear 60 15.6 27 -2.8 28 28 NW 7 11 30.05 1018 10 16 0.00 0.00
9:53 pm 21:53 Clear 57 13.9 27 -2.8 32 32 NW 5 7 30.05 1018 10 16 0.00 0.00
10:53 pm 22:53 Clear 56 13.3 27 -2.8 33 33 NW 3 6 30.05 1018 10 16 0.00 0.00
11:53 pm 23:53 Clear 53 11.7 29 -1.7 40 40 NNW 6 9 30.05 1018 10 16 0.00 0.00

Powered by AerisWeather